Regional Weather Roundup
Issued by NWS

Home | Current Version | Previous Version | Graphics & Text | Print | Product List | Glossary On
Versions: 1 2 3 4 5 6 7 8 9 10 11 12 13 14 15 16 17 18 19 20 21 22 23 24 25 26 27 28 29 30 31 32 33 34 35 36 37 38 39 40 41 42 43 44 45 46 47 48 49 50
000
ASUS43 KOAX 211102
RWRNE

WEATHER ROUNDUP FOR NEBRASKA
NATIONAL WEATHER SERVICE OMAHA NE
600 AM CDT SAT OCT 21 2017

NOTES: SATELLITE DATA IS BEING USED TO AUGMENT CLOUD COVER ABOVE
       12000 FEET.
       "FAIR" INDICATES FEW OR NO CLOUDS BELOW 12,000 FEET WITH NO
       SIGNIFICANT WEATHER AND/OR OBSTRUCTIONS TO VISIBILITY.


NEZ001>004-019>022-054>056-211200-
NEBRASKA PANHANDLE

CITY           SKY/WX    TMP DP  RH WIND       PRES   REMARKS
SCOTTSBLUFF    CLOUDY    49  21  33 W24G33    29.72R
ALLIANCE       CLOUDY    50  19  29 NW23G35   29.68R
CHADRON        CLOUDY    49  26  41 W26G40    29.66R
GORDON         CLOUDY    54  36  51 NW22G28   29.61R
KIMBALL        CLOUDY    46  18  32 NW36G47   29.72R
SIDNEY         CLOUDY    48  20  32 NW23G30   29.73R
$$

NEZ057>060-069>072-079>082-211200-
SOUTHWEST NEBRASKA

CITY           SKY/WX    TMP DP  RH WIND       PRES   REMARKS
NORTH PLATTE   PTCLDY    54  52  93 NW10      29.52R
IMPERIAL       CLOUDY    53  34  48 NW20G29   29.63R
LEXINGTON      PTCLDY    64  56  77 S9        29.49R
MCCOOK         CLEAR     58  42  55 W18G35    29.53R
OGALLALA       PTCLDY    57  31  36 NW20G29   29.63R
$$

NEZ005>010-023>029-035>040-094-211200-
NORTH CENTRAL NEBRASKA

CITY           SKY/WX    TMP DP  RH WIND       PRES   REMARKS
VALENTINE      MOCLDY    58  41  53 NW20G28   29.55R
AINSWORTH      PTCLDY    57  50  78 NW13      29.52R
BROKEN BOW     PTCLDY    60  56  86 S7        29.49R
O`NEILL        CLOUDY    62  60  91 S7        29.49S
ORD            CLOUDY    63  60  90 SW5       29.49R
THEDFORD       MOCLDY    55  48  77 NW10G16   29.55R
$$

NEZ041-046>049-061>064-073>077-083>087-211200-
SOUTH CENTRAL NEBRASKA

CITY           SKY/WX    TMP DP  RH WIND       PRES   REMARKS
GRAND ISLAND   PTCLDY    67  62  84 S23       29.51S
AURORA         MOCLDY    68  61  79 S23G29    29.52S
HASTINGS       MOCLDY    67  60  78 S18G29    29.53R
HEBRON         CLOUDY    70  63  77 S25G33    29.58S
HOLDREGE       CLOUDY    64  60  87 S15       29.52R
KEARNEY        CLOUDY    65  60  84 S22G29    29.50R
YORK           CLOUDY    68  63  83 S21G31    29.55S
$$

NEZ011>018-030>034-042>045-211200-
NORTHEAST NEBRASKA

CITY           SKY/WX    TMP DP  RH WIND       PRES   REMARKS
NORFOLK        CLOUDY    69  61  75 S20G32    29.50R
ALBION         CLOUDY    69  62  78 S16G24    29.50R
BLAIR          CLOUDY    66  62  87 S20G26    29.61S
COLUMBUS       CLOUDY    70  62  76 S26G36    29.52S
FREMONT        CLOUDY    69  61  75 S16G22    29.58S
TEKAMAH        CLOUDY    67  60  78 S16G23    29.59S
WAYNE          CLOUDY    68  64  85 S15G25    29.53R
$$

NEZ050>053-065>068-078-088>093-211200-
SOUTHEAST NEBRASKA

CITY           SKY/WX    TMP DP  RH WIND       PRES   REMARKS
LINCOLN        CLOUDY    69  61  75 S23G37    29.59R
OMAHA EPPLEY   TSTM      65  60  84 S17       29.62S
BEATRICE       CLOUDY    68  62  81 S22G31    29.61F
FALLS CITY     CLOUDY    67  60  78 S20G29    29.70F
NEBRASKA CITY  CLOUDY    67  64  89 S23G32    29.66S
PLATTSMOUTH    CLOUDY    67  63  86 S18G26    29.64S
$$

NEZ044-045-051>053-067-211200-
OMAHA AREA

CITY           SKY/WX    TMP DP  RH WIND       PRES   REMARKS
OMAHA EPPLEY   TSTM      65  60  84 S17       29.62S
BLAIR          CLOUDY    66  62  87 S20G26    29.61S
FREMONT        CLOUDY    69  61  75 S16G22    29.58S
MILLARD        CLOUDY    67  63  86 SE14      29.62S
OFFUTT AFB     MOCLDY    67  61  81 S21G29    29.62S
PLATTSMOUTH    CLOUDY    67  63  86 S18G26    29.64S
WAHOO          CLOUDY    70  61  74 S22G29    29.58S
$$




USA.gov is the U.S. government's official web portal to all federal, state and local government web resources and services.